Regional Weather Roundup
Issued by NWS

Home | Current Version | Previous Version | Text Only | Print | Product List | Glossary Off
Versions: 1 2 3 4 5 6 7 8 9 10 11 12 13 14 15 16 17 18 19 20 21 22 23 24 25 26 27 28 29 30 31 32 33 34 35 36 37 38 39 40 41 42 43 44 45 46 47 48 49 50

000
ASUS44 KMEG 190310
RWRTN
TENNESSEE HOURLY STATE WEATHER ROUNDUP
NATIONAL WEATHER SERVICE MEMPHIS TN
1000 PM CDT FRI AUG 18 2017

TNZ002-004-019-021-049-052-054-088>092-190400-
WEST TENNESSEE

CITY           SKY/WX    TMP DP  RH WIND       PRES   REMARKS
MEMPHIS INTL   FAIR      82  69  64 NE3       29.99R
NWS MEMPHIS      N/A     75 N/A N/A MISG        N/A
JACKSON        FAIR      71  70  96 S3        29.99S
DYERSBURG      FAIR      73  70  90 CALM      29.99R
SOMERVILLE     CLEAR     73  72  94 CALM      29.98S
COVINGTON      CLEAR     72  70  94 CALM      29.99R
UNION CITY     CLEAR     72  68  88 SW5       29.97R
BOLIVAR        CLEAR     72  70  94 CALM      29.99S
PARIS          PTCLDY    70  68  94 CALM      29.97S
HUNTINGDON     PTCLDY    72  70  94 CALM      29.98S
LEXINGTON      CLEAR     72  70  94 CALM      29.99S FOG
SELMER         CLEAR     68  66  94 CALM      29.99S
SAVANNAH       MOCLDY    70  68  94 CALM      29.99S
$$

TNZ008-025-027-028-033-062-065-066-190400-
NORTH MIDDLE TENNESSEE

CITY           SKY/WX    TMP DP  RH WIND       PRES   REMARKS
NASHVILLE      FAIR      75  67  76 W3        30.00R
PORTLAND       CLEAR     73  66  78 CALM      29.99S
CLARKSVILLE    FAIR      70  66  87 CALM      29.97F
SMYRNA         FAIR      71  67  87 CALM      30.01R
COOKEVILLE       N/A     66  64  94 CALM      30.01R
GALLATIN       CLEAR     72  66  83 CALM      30.02R
CROSSVILLE     FAIR      66  64  93 CALM      30.06S
$$

TNZ061-075-076-078-094-096-097-190400-
SOUTH MIDDLE TENNESSEE

CITY           SKY/WX    TMP DP  RH WIND       PRES   REMARKS
FAYETTEVILLE   CLEAR     75  68  78 CALM      30.02R
TULLAHOMA      CLEAR     70  64  83 CALM      30.04S
WINCHESTER     CLEAR     70  68  94 CALM      30.03S
MCMINNVILLE    CLEAR     70  70 100 CALM      30.02S
COLUMBIA       CLEAR     72  72 100 CALM      30.00R
SHELBYVILLE    CLEAR     70  68  94 CALM      30.01S
$$

TNZ017-018-042-046-047-190400-
NORTHEAST TENNESSEE

CITY           SKY/WX    TMP DP  RH WIND       PRES   REMARKS
TRI CITIES     FAIR      75  64  68 NW7       30.01R
ELIZABETHTON   CLOUDY    70  70 100 CALM      30.02R FOG
$$

TNZ012-013-036-069-073-074-190400-
CENTRAL EAST TENNESSEE

CITY           SKY/WX    TMP DP  RH WIND       PRES   REMARKS
KNOXVILLE      FAIR      74  65  73 CALM      29.99S
OAK RIDGE      FAIR      72  67  84 CALM      30.00F
DOWNTOWN KNOXV   N/A     72  70  94 CALM      29.98S
GATLINBURG     MOCLDY    73  66  78 CALM      29.99S
MORRISTOWN     PTCLDY    75  66  73 NW5       30.00S
JACKSBORO      CLEAR     68  66  94 CALM      30.04F
$$

TNZ083-085-099-190400-
SOUTHEAST TENNESSEE

CITY           SKY/WX    TMP DP  RH WIND       PRES   REMARKS
CHATTANOOGA    FAIR      76  68  76 NW3       30.00R
DAYTON         CLOUDY    70  70 100 CALM      29.99R
$$

SKY/WX REPORTED AS FAIR MEANS FEW OR NO CLOUDS BELOW
12 THOUSAND FEET.




USA.gov is the U.S. government's official web portal to all federal, state and local government web resources and services.